Simultaneous Nadir Overpasses (SNOs) Predictions

Prediction of SNOs between GOES-16 and FY3D Satellite Orbit:

Table of predicted SNOs for the next 14.0 days since TLE Epoch: 3/23/2024
Index Date Time (GOES-16) GOES-16 Lat,Lon FY3D Lat,Lon Distance(km) Time Diff (sec)
1 03/25/2024 07:29:29 -0.02, -75.22 0.10, -75.76 61.46 80
2 03/26/2024 07:08:19 -0.02, -75.23 -0.90, -71.27 450.83 80
3 03/27/2024 19:33:17 0.02, -75.24 -0.29, -76.64 159.11 80
4 03/28/2024 19:12:07 0.02, -75.25 0.71, -72.15 353.51 80
5 03/30/2024 07:36:56 -0.02, -75.27 0.51, -77.47 251.05 80
6 03/31/2024 07:15:46 -0.02, -75.28 -0.56, -72.99 261.56 80
7 04/01/2024 19:38:04 0.01, -75.29 -0.67, -78.34 348.26 80
8 04/02/2024 19:22:13 0.01, -75.30 0.34, -73.85 164.71 80
9 04/04/2024 07:44:23 -0.00, -75.33 0.85, -79.18 438.86 80
10 04/05/2024 07:23:12 -0.00, -75.34 -0.16, -74.69 74.43 80
